#datetime,building,power
2024-04-18T00:00:00,axn,31.58
2024-04-18T00:01:00,axn,31.03
2024-04-18T00:02:00,axn,31.49
2024-04-18T00:03:00,axn,31.29
2024-04-18T00:04:00,axn,31.15
2024-04-18T00:05:00,axn,31.29
2024-04-18T00:06:00,axn,31.15
2024-04-18T00:07:00,axn,31.25
2024-04-18T00:08:00,axn,30.32
2024-04-18T00:09:00,axn,30.52
2024-04-18T00:10:00,axn,30.26
2024-04-18T00:11:00,axn,30.17
2024-04-18T00:12:00,axn,30.72
2024-04-18T00:13:00,axn,30.27
2024-04-18T00:14:00,axn,30.38
2024-04-18T00:15:00,axn,30.54
2024-04-18T00:16:00,axn,30.30
2024-04-18T00:17:00,axn,30.19
2024-04-18T00:18:00,axn,30.14
2024-04-18T00:19:00,axn,30.10
2024-04-18T00:20:00,axn,30.23
2024-04-18T00:21:00,axn,30.25
2024-04-18T00:22:00,axn,30.01
2024-04-18T00:23:00,axn,34.66
2024-04-18T00:24:00,axn,29.74
2024-04-18T00:25:00,axn,29.98
2024-04-18T00:26:00,axn,29.98
2024-04-18T00:27:00,axn,29.32
2024-04-18T00:28:00,axn,29.66
2024-04-18T00:29:00,axn,29.84
2024-04-18T00:30:00,axn,29.56
2024-04-18T00:31:00,axn,29.56
2024-04-18T00:32:00,axn,29.69
2024-04-18T00:33:00,axn,29.57
2024-04-18T00:34:00,axn,29.41
2024-04-18T00:35:00,axn,30.04
2024-04-18T00:36:00,axn,29.87
2024-04-18T00:37:00,axn,29.60
2024-04-18T00:38:00,axn,29.57
2024-04-18T00:39:00,axn,29.58
2024-04-18T00:40:00,axn,29.44
2024-04-18T00:41:00,axn,29.42
2024-04-18T00:42:00,axn,29.64
2024-04-18T00:43:00,axn,29.50
2024-04-18T00:44:00,axn,29.54
2024-04-18T00:45:00,axn,29.94
2024-04-18T00:46:00,axn,29.95
2024-04-18T00:47:00,axn,29.61
2024-04-18T00:48:00,axn,29.93
2024-04-18T00:49:00,axn,29.53
2024-04-18T00:50:00,axn,29.64
2024-04-18T00:51:00,axn,29.75
2024-04-18T00:52:00,axn,35.72
2024-04-18T00:53:00,axn,35.40
2024-04-18T00:54:00,axn,35.33
2024-04-18T00:55:00,axn,29.36
2024-04-18T00:56:00,axn,29.49
2024-04-18T00:57:00,axn,29.47
2024-04-18T00:58:00,axn,29.59
2024-04-18T00:59:00,axn,29.39
2024-04-18T01:00:00,axn,29.34
2024-04-18T01:01:00,axn,29.35
2024-04-18T01:02:00,axn,29.23
2024-04-18T01:03:00,axn,29.39
2024-04-18T01:04:00,axn,29.28
2024-04-18T01:05:00,axn,29.27
2024-04-18T01:06:00,axn,29.12
2024-04-18T01:07:00,axn,29.13
2024-04-18T01:08:00,axn,29.48
2024-04-18T01:09:00,axn,28.96
2024-04-18T01:10:00,axn,29.06
2024-04-18T01:11:00,axn,29.11
2024-04-18T01:12:00,axn,29.44
2024-04-18T01:13:00,axn,29.46
2024-04-18T01:14:00,axn,29.45
2024-04-18T01:15:00,axn,29.41
2024-04-18T01:16:00,axn,29.43
2024-04-18T01:17:00,axn,29.66
2024-04-18T01:18:00,axn,29.50
2024-04-18T01:19:00,axn,29.43
2024-04-18T01:20:00,axn,29.57
2024-04-18T01:21:00,axn,29.56
2024-04-18T01:22:00,axn,40.09
2024-04-18T01:23:00,axn,40.10
2024-04-18T01:24:00,axn,39.99
2024-04-18T01:25:00,axn,40.15
2024-04-18T01:26:00,axn,29.47
2024-04-18T01:27:00,axn,29.66
2024-04-18T01:28:00,axn,29.34
2024-04-18T01:29:00,axn,29.55
2024-04-18T01:30:00,axn,30.07
2024-04-18T01:31:00,axn,29.31
2024-04-18T01:32:00,axn,29.35
2024-04-18T01:33:00,axn,29.34
2024-04-18T01:34:00,axn,29.73
2024-04-18T01:35:00,axn,29.84
2024-04-18T01:36:00,axn,29.50
2024-04-18T01:37:00,axn,29.93
2024-04-18T01:38:00,axn,29.33
2024-04-18T01:39:00,axn,29.37
2024-04-18T01:40:00,axn,29.60
2024-04-18T01:41:00,axn,29.52
2024-04-18T01:42:00,axn,29.33
2024-04-18T01:43:00,axn,29.28
2024-04-18T01:44:00,axn,29.43
2024-04-18T01:45:00,axn,29.47
2024-04-18T01:46:00,axn,29.42
2024-04-18T01:47:00,axn,29.68
2024-04-18T01:48:00,axn,29.63
2024-04-18T01:49:00,axn,29.60
2024-04-18T01:50:00,axn,29.65
2024-04-18T01:51:00,axn,29.56
2024-04-18T01:52:00,axn,32.50
2024-04-18T01:53:00,axn,32.48
2024-04-18T01:54:00,axn,29.56
2024-04-18T01:55:00,axn,29.65
2024-04-18T01:56:00,axn,29.59
2024-04-18T01:57:00,axn,29.67
2024-04-18T01:58:00,axn,30.00
2024-04-18T01:59:00,axn,29.99
2024-04-18T02:00:00,axn,29.85
2024-04-18T02:01:00,axn,29.55
2024-04-18T02:02:00,axn,29.62
2024-04-18T02:03:00,axn,29.37
2024-04-18T02:04:00,axn,29.90
2024-04-18T02:05:00,axn,34.81
2024-04-18T02:06:00,axn,29.13
2024-04-18T02:07:00,axn,29.22
2024-04-18T02:08:00,axn,29.23
2024-04-18T02:09:00,axn,28.96
2024-04-18T02:10:00,axn,29.29
2024-04-18T02:11:00,axn,29.11
2024-04-18T02:12:00,axn,28.93
2024-04-18T02:13:00,axn,29.35
2024-04-18T02:14:00,axn,29.00
2024-04-18T02:15:00,axn,28.89
2024-04-18T02:16:00,axn,28.89
2024-04-18T02:17:00,axn,28.97
2024-04-18T02:18:00,axn,28.84
2024-04-18T02:19:00,axn,29.08
2024-04-18T02:20:00,axn,28.90
2024-04-18T02:21:00,axn,29.55
2024-04-18T02:22:00,axn,28.86
2024-04-18T02:23:00,axn,28.96
2024-04-18T02:24:00,axn,28.84
2024-04-18T02:25:00,axn,28.90
2024-04-18T02:26:00,axn,28.97
2024-04-18T02:27:00,axn,29.25
2024-04-18T02:28:00,axn,28.87
2024-04-18T02:29:00,axn,28.79
2024-04-18T02:30:00,axn,28.90
2024-04-18T02:31:00,axn,29.12
2024-04-18T02:32:00,axn,29.10
2024-04-18T02:33:00,axn,28.94
2024-04-18T02:34:00,axn,28.85
2024-04-18T02:35:00,axn,28.99
2024-04-18T02:36:00,axn,29.04
2024-04-18T02:37:00,axn,28.87
2024-04-18T02:38:00,axn,28.94
2024-04-18T02:39:00,axn,28.87
2024-04-18T02:40:00,axn,29.15
2024-04-18T02:41:00,axn,29.02
2024-04-18T02:42:00,axn,28.88
2024-04-18T02:43:00,axn,28.98
2024-04-18T02:44:00,axn,29.08
2024-04-18T02:45:00,axn,29.02
2024-04-18T02:46:00,axn,28.88
2024-04-18T02:47:00,axn,28.94
2024-04-18T02:48:00,axn,28.90
2024-04-18T02:49:00,axn,28.85
2024-04-18T02:50:00,axn,28.90
2024-04-18T02:51:00,axn,28.97
2024-04-18T02:52:00,axn,29.19
2024-04-18T02:53:00,axn,29.05
2024-04-18T02:54:00,axn,29.25
2024-04-18T02:55:00,axn,28.92
2024-04-18T02:56:00,axn,28.97
2024-04-18T02:57:00,axn,28.87
2024-04-18T02:58:00,axn,28.81
2024-04-18T02:59:00,axn,28.96
2024-04-18T03:00:00,axn,29.01
2024-04-18T03:01:00,axn,28.90
2024-04-18T03:02:00,axn,29.00
2024-04-18T03:03:00,axn,29.15
2024-04-18T03:04:00,axn,28.98
2024-04-18T03:05:00,axn,28.96
2024-04-18T03:06:00,axn,29.23
2024-04-18T03:07:00,axn,28.91
2024-04-18T03:08:00,axn,28.96
2024-04-18T03:09:00,axn,28.84
2024-04-18T03:10:00,axn,29.23
2024-04-18T03:11:00,axn,28.95
2024-04-18T03:12:00,axn,29.35
2024-04-18T03:13:00,axn,29.00
2024-04-18T03:14:00,axn,29.17
2024-04-18T03:15:00,axn,28.86
2024-04-18T03:16:00,axn,43.99
2024-04-18T03:17:00,axn,43.53
2024-04-18T03:18:00,axn,43.34
2024-04-18T03:19:00,axn,43.71
2024-04-18T03:20:00,axn,43.42
2024-04-18T03:21:00,axn,28.86
2024-04-18T03:22:00,axn,29.07
2024-04-18T03:23:00,axn,28.96
2024-04-18T03:24:00,axn,28.87
2024-04-18T03:25:00,axn,28.82
2024-04-18T03:26:00,axn,28.87
2024-04-18T03:27:00,axn,28.82
2024-04-18T03:28:00,axn,28.83
2024-04-18T03:29:00,axn,28.90
2024-04-18T03:30:00,axn,29.02
2024-04-18T03:31:00,axn,29.40
2024-04-18T03:32:00,axn,29.01
2024-04-18T03:33:00,axn,28.99
2024-04-18T03:34:00,axn,28.82
2024-04-18T03:35:00,axn,28.61
2024-04-18T03:36:00,axn,28.73
2024-04-18T03:37:00,axn,29.28
2024-04-18T03:38:00,axn,28.73
2024-04-18T03:39:00,axn,28.87
2024-04-18T03:40:00,axn,28.70
2024-04-18T03:41:00,axn,28.66
2024-04-18T03:42:00,axn,28.81
2024-04-18T03:43:00,axn,28.59
2024-04-18T03:44:00,axn,28.63
2024-04-18T03:45:00,axn,29.02
2024-04-18T03:46:00,axn,28.88
2024-04-18T03:47:00,axn,28.61
2024-04-18T03:48:00,axn,28.46
2024-04-18T03:49:00,axn,28.51
2024-04-18T03:50:00,axn,28.50
2024-04-18T03:51:00,axn,28.56
2024-04-18T03:52:00,axn,28.66
2024-04-18T03:53:00,axn,28.58
2024-04-18T03:54:00,axn,28.89
2024-04-18T03:55:00,axn,29.21
2024-04-18T03:56:00,axn,29.12
2024-04-18T03:57:00,axn,28.95
2024-04-18T03:58:00,axn,29.27
2024-04-18T03:59:00,axn,29.22
2024-04-18T04:00:00,axn,28.91
2024-04-18T04:01:00,axn,29.08
2024-04-18T04:02:00,axn,28.94
2024-04-18T04:03:00,axn,28.86
2024-04-18T04:04:00,axn,28.88
2024-04-18T04:05:00,axn,28.81
2024-04-18T04:06:00,axn,28.81
2024-04-18T04:07:00,axn,28.73
2024-04-18T04:08:00,axn,28.79
2024-04-18T04:09:00,axn,28.72
2024-04-18T04:10:00,axn,28.58
2024-04-18T04:11:00,axn,28.57
2024-04-18T04:12:00,axn,28.48
2024-04-18T04:13:00,axn,28.84
2024-04-18T04:14:00,axn,28.70
2024-04-18T04:15:00,axn,28.66
2024-04-18T04:16:00,axn,28.44
2024-04-18T04:17:00,axn,33.50
2024-04-18T04:18:00,axn,28.27
2024-04-18T04:19:00,axn,28.33
2024-04-18T04:20:00,axn,28.33
2024-04-18T04:21:00,axn,28.96
2024-04-18T04:22:00,axn,28.64
2024-04-18T04:23:00,axn,28.91
2024-04-18T04:24:00,axn,28.68
2024-04-18T04:25:00,axn,28.77
2024-04-18T04:26:00,axn,28.81
2024-04-18T04:27:00,axn,28.67
2024-04-18T04:28:00,axn,28.62
2024-04-18T04:29:00,axn,28.79
2024-04-18T04:30:00,axn,28.87
2024-04-18T04:31:00,axn,28.59
2024-04-18T04:32:00,axn,29.02
2024-04-18T04:33:00,axn,28.68
2024-04-18T04:34:00,axn,28.55
2024-04-18T04:35:00,axn,28.34
2024-04-18T04:36:00,axn,28.56
2024-04-18T04:37:00,axn,28.64
2024-04-18T04:38:00,axn,28.54
2024-04-18T04:39:00,axn,28.53
2024-04-18T04:40:00,axn,28.49
2024-04-18T04:41:00,axn,28.67
2024-04-18T04:42:00,axn,28.63
2024-04-18T04:43:00,axn,28.27
2024-04-18T04:44:00,axn,28.32
2024-04-18T04:45:00,axn,28.19
2024-04-18T04:46:00,axn,28.21
2024-04-18T04:47:00,axn,28.22
2024-04-18T04:48:00,axn,28.22
2024-04-18T04:49:00,axn,28.25
2024-04-18T04:50:00,axn,28.27
2024-04-18T04:51:00,axn,28.13
2024-04-18T04:52:00,axn,28.53
2024-04-18T04:53:00,axn,28.13
2024-04-18T04:54:00,axn,28.56
2024-04-18T04:55:00,axn,28.12
2024-04-18T04:56:00,axn,28.17
2024-04-18T04:57:00,axn,28.20
2024-04-18T04:58:00,axn,28.31
2024-04-18T04:59:00,axn,28.13
2024-04-18T05:00:00,axn,27.95
2024-04-18T05:01:00,axn,25.76
2024-04-18T05:02:00,axn,29.94
2024-04-18T05:03:00,axn,29.96
2024-04-18T05:04:00,axn,29.81
2024-04-18T05:05:00,axn,29.78
2024-04-18T05:06:00,axn,30.13
2024-04-18T05:07:00,axn,30.44
2024-04-18T05:08:00,axn,30.41
2024-04-18T05:09:00,axn,30.24
2024-04-18T05:10:00,axn,30.62
2024-04-18T05:11:00,axn,25.81
2024-04-18T05:12:00,axn,25.83
2024-04-18T05:13:00,axn,27.02
2024-04-18T05:14:00,axn,27.35
2024-04-18T05:15:00,axn,26.87
2024-04-18T05:16:00,axn,27.05
2024-04-18T05:17:00,axn,27.12
2024-04-18T05:18:00,axn,27.05
2024-04-18T05:19:00,axn,26.93
2024-04-18T05:20:00,axn,27.04
2024-04-18T05:21:00,axn,27.31
2024-04-18T05:22:00,axn,27.14
2024-04-18T05:23:00,axn,27.04
2024-04-18T05:24:00,axn,27.08
2024-04-18T05:25:00,axn,26.96
2024-04-18T05:26:00,axn,44.22
2024-04-18T05:27:00,axn,27.48
2024-04-18T05:28:00,axn,26.93
2024-04-18T05:29:00,axn,31.76
2024-04-18T05:30:00,axn,31.89
2024-04-18T05:31:00,axn,28.63
2024-04-18T05:32:00,axn,28.53
2024-04-18T05:33:00,axn,29.06
2024-04-18T05:34:00,axn,28.55
2024-04-18T05:35:00,axn,28.52
2024-04-18T05:36:00,axn,28.51
2024-04-18T05:37:00,axn,28.43
2024-04-18T05:38:00,axn,28.70
2024-04-18T05:39:00,axn,28.45
2024-04-18T05:40:00,axn,28.44
2024-04-18T05:41:00,axn,28.10
2024-04-18T05:42:00,axn,28.16
2024-04-18T05:43:00,axn,28.26
2024-04-18T05:44:00,axn,28.17
2024-04-18T05:45:00,axn,28.09
2024-04-18T05:46:00,axn,28.23
2024-04-18T05:47:00,axn,28.46
2024-04-18T05:48:00,axn,28.20
2024-04-18T05:49:00,axn,28.83
2024-04-18T05:50:00,axn,28.75
2024-04-18T05:51:00,axn,28.84
2024-04-18T05:52:00,axn,28.59
2024-04-18T05:53:00,axn,28.50
2024-04-18T05:54:00,axn,28.58
2024-04-18T05:55:00,axn,28.69
2024-04-18T05:56:00,axn,29.24
2024-04-18T05:57:00,axn,29.39
2024-04-18T05:58:00,axn,29.30
2024-04-18T05:59:00,axn,29.30
2024-04-18T06:00:00,axn,34.51
2024-04-18T06:01:00,axn,34.26
2024-04-18T06:02:00,axn,29.84
2024-04-18T06:03:00,axn,29.95
2024-04-18T06:04:00,axn,29.83
2024-04-18T06:05:00,axn,30.63
2024-04-18T06:06:00,axn,33.03
2024-04-18T06:07:00,axn,32.40
2024-04-18T06:08:00,axn,32.69
2024-04-18T06:09:00,axn,32.59
2024-04-18T06:10:00,axn,32.87
2024-04-18T06:11:00,axn,32.48
2024-04-18T06:12:00,axn,32.85
2024-04-18T06:13:00,axn,32.45
2024-04-18T06:14:00,axn,32.44
2024-04-18T06:15:00,axn,32.55
2024-04-18T06:16:00,axn,32.21
2024-04-18T06:17:00,axn,31.95
2024-04-18T06:18:00,axn,32.02
2024-04-18T06:19:00,axn,32.03
2024-04-18T06:20:00,axn,31.72
2024-04-18T06:21:00,axn,32.22
2024-04-18T06:22:00,axn,32.02
2024-04-18T06:23:00,axn,33.44
2024-04-18T06:24:00,axn,31.63
2024-04-18T06:25:00,axn,31.90
2024-04-18T06:26:00,axn,32.04
2024-04-18T06:27:00,axn,32.67
2024-04-18T06:28:00,axn,31.98
2024-04-18T06:29:00,axn,34.94
2024-04-18T06:30:00,axn,40.12
2024-04-18T06:31:00,axn,32.41
2024-04-18T06:32:00,axn,31.98
2024-04-18T06:33:00,axn,36.45
2024-04-18T06:34:00,axn,32.35
2024-04-18T06:35:00,axn,32.05
2024-04-18T06:36:00,axn,31.93
2024-04-18T06:37:00,axn,31.97
2024-04-18T06:38:00,axn,32.41
2024-04-18T06:39:00,axn,32.51
2024-04-18T06:40:00,axn,32.41
2024-04-18T06:41:00,axn,32.17
2024-04-18T06:42:00,axn,31.63
2024-04-18T06:43:00,axn,32.27
2024-04-18T06:44:00,axn,31.54
2024-04-18T06:45:00,axn,31.48
2024-04-18T06:46:00,axn,31.03
2024-04-18T06:47:00,axn,31.69
2024-04-18T06:48:00,axn,31.65
2024-04-18T06:49:00,axn,31.63
2024-04-18T06:50:00,axn,31.45
2024-04-18T06:51:00,axn,31.61
2024-04-18T06:52:00,axn,31.06
2024-04-18T06:53:00,axn,32.32
2024-04-18T06:54:00,axn,32.85
2024-04-18T06:55:00,axn,33.53
2024-04-18T06:56:00,axn,33.36
2024-04-18T06:57:00,axn,32.53
2024-04-18T06:58:00,axn,32.95
2024-04-18T06:59:00,axn,31.90
2024-04-18T07:00:00,axn,30.92
2024-04-18T07:01:00,axn,33.80
2024-04-18T07:02:00,axn,37.34
2024-04-18T07:03:00,axn,37.51
2024-04-18T07:04:00,axn,36.98
2024-04-18T07:05:00,axn,35.79
2024-04-18T07:06:00,axn,40.14
2024-04-18T07:07:00,axn,39.96
2024-04-18T07:08:00,axn,34.88
2024-04-18T07:09:00,axn,35.11
2024-04-18T07:10:00,axn,35.21
2024-04-18T07:11:00,axn,36.15
2024-04-18T07:12:00,axn,36.27
2024-04-18T07:13:00,axn,36.20
2024-04-18T07:14:00,axn,34.59
2024-04-18T07:15:00,axn,34.24
2024-04-18T07:16:00,axn,36.88
2024-04-18T07:17:00,axn,36.02
2024-04-18T07:18:00,axn,36.27
2024-04-18T07:19:00,axn,34.40
2024-04-18T07:20:00,axn,33.88
2024-04-18T07:21:00,axn,35.91
2024-04-18T07:22:00,axn,36.22
2024-04-18T07:23:00,axn,36.26
2024-04-18T07:24:00,axn,36.08
2024-04-18T07:25:00,axn,36.06
2024-04-18T07:26:00,axn,36.19
2024-04-18T07:27:00,axn,35.12
2024-04-18T07:28:00,axn,36.05
2024-04-18T07:29:00,axn,36.19
2024-04-18T07:30:00,axn,36.21
2024-04-18T07:31:00,axn,36.10
2024-04-18T07:32:00,axn,36.14
2024-04-18T07:33:00,axn,44.58
2024-04-18T07:34:00,axn,46.55
2024-04-18T07:35:00,axn,46.50
2024-04-18T07:36:00,axn,36.43
2024-04-18T07:37:00,axn,36.30
2024-04-18T07:38:00,axn,34.06
2024-04-18T07:39:00,axn,36.41
2024-04-18T07:40:00,axn,31.08
2024-04-18T07:41:00,axn,32.32
2024-04-18T07:42:00,axn,33.38
2024-04-18T07:43:00,axn,33.77
2024-04-18T07:44:00,axn,34.84
2024-04-18T07:45:00,axn,36.37
2024-04-18T07:46:00,axn,35.55
2024-04-18T07:47:00,axn,35.05
2024-04-18T07:48:00,axn,33.10
2024-04-18T07:49:00,axn,34.04
2024-04-18T07:50:00,axn,51.48
2024-04-18T07:51:00,axn,47.88
2024-04-18T07:52:00,axn,44.87
2024-04-18T07:53:00,axn,44.64
2024-04-18T07:54:00,axn,45.86
2024-04-18T07:55:00,axn,32.95
2024-04-18T07:56:00,axn,33.70
2024-04-18T07:57:00,axn,32.20
2024-04-18T07:58:00,axn,30.69
2024-04-18T07:59:00,axn,32.14
2024-04-18T08:00:00,axn,35.39
2024-04-18T08:01:00,axn,38.48
2024-04-18T08:02:00,axn,40.79
2024-04-18T08:03:00,axn,39.81
2024-04-18T08:04:00,axn,39.17
2024-04-18T08:05:00,axn,39.44
2024-04-18T08:06:00,axn,39.75
2024-04-18T08:07:00,axn,39.19
2024-04-18T08:08:00,axn,44.55
2024-04-18T08:09:00,axn,43.68
2024-04-18T08:10:00,axn,39.86
2024-04-18T08:11:00,axn,39.74
2024-04-18T08:12:00,axn,40.34
2024-04-18T08:13:00,axn,39.76
2024-04-18T08:14:00,axn,39.77
2024-04-18T08:15:00,axn,39.67
2024-04-18T08:16:00,axn,39.41
2024-04-18T08:17:00,axn,45.29
2024-04-18T08:18:00,axn,40.06
2024-04-18T08:19:00,axn,40.11
2024-04-18T08:20:00,axn,40.49
2024-04-18T08:21:00,axn,56.34
2024-04-18T08:22:00,axn,40.50
2024-04-18T08:23:00,axn,40.75
2024-04-18T08:24:00,axn,41.15
2024-04-18T08:25:00,axn,41.79
2024-04-18T08:26:00,axn,41.08
2024-04-18T08:27:00,axn,40.71
2024-04-18T08:28:00,axn,51.99
2024-04-18T08:29:00,axn,45.16
2024-04-18T08:30:00,axn,45.49
2024-04-18T08:31:00,axn,41.06
2024-04-18T08:32:00,axn,41.42
2024-04-18T08:33:00,axn,45.91
2024-04-18T08:34:00,axn,45.74
2024-04-18T08:35:00,axn,45.62
2024-04-18T08:36:00,axn,45.58
2024-04-18T08:37:00,axn,46.02
2024-04-18T08:38:00,axn,40.73
2024-04-18T08:39:00,axn,40.88
2024-04-18T08:40:00,axn,40.96
2024-04-18T08:41:00,axn,41.62
2024-04-18T08:42:00,axn,41.07
2024-04-18T08:43:00,axn,40.88
2024-04-18T08:44:00,axn,41.32
2024-04-18T08:45:00,axn,40.65
2024-04-18T08:46:00,axn,40.44
2024-04-18T08:47:00,axn,40.54
2024-04-18T08:48:00,axn,40.20
2024-04-18T08:49:00,axn,40.54
2024-04-18T08:50:00,axn,40.17
2024-04-18T08:51:00,axn,40.50
2024-04-18T08:52:00,axn,40.25
2024-04-18T08:53:00,axn,40.52
2024-04-18T08:54:00,axn,40.39
2024-04-18T08:55:00,axn,40.32
2024-04-18T08:56:00,axn,40.28
2024-04-18T08:57:00,axn,40.31
2024-04-18T08:58:00,axn,45.26
2024-04-18T08:59:00,axn,45.52
2024-04-18T09:00:00,axn,46.35
2024-04-18T09:01:00,axn,45.88
2024-04-18T09:02:00,axn,45.71
2024-04-18T09:03:00,axn,39.87
2024-04-18T09:04:00,axn,51.36
2024-04-18T09:05:00,axn,40.29
2024-04-18T09:06:00,axn,40.09
2024-04-18T09:07:00,axn,40.47
2024-04-18T09:08:00,axn,40.54
2024-04-18T09:09:00,axn,40.79
2024-04-18T09:10:00,axn,40.84
2024-04-18T09:11:00,axn,41.42
2024-04-18T09:12:00,axn,40.86
2024-04-18T09:13:00,axn,40.67
2024-04-18T09:14:00,axn,40.77
2024-04-18T09:15:00,axn,40.79
2024-04-18T09:16:00,axn,41.09
2024-04-18T09:17:00,axn,41.10
2024-04-18T09:18:00,axn,41.16
2024-04-18T09:19:00,axn,40.96
2024-04-18T09:20:00,axn,41.19
2024-04-18T09:21:00,axn,40.58
2024-04-18T09:22:00,axn,40.98
2024-04-18T09:23:00,axn,40.44
2024-04-18T09:24:00,axn,53.69
2024-04-18T09:25:00,axn,48.70
2024-04-18T09:26:00,axn,41.63
2024-04-18T09:27:00,axn,40.73
2024-04-18T09:28:00,axn,40.46
2024-04-18T09:29:00,axn,40.59
2024-04-18T09:30:00,axn,45.06
2024-04-18T09:31:00,axn,41.14
2024-04-18T09:32:00,axn,40.60
2024-04-18T09:33:00,axn,40.74
2024-04-18T09:34:00,axn,40.32
2024-04-18T09:35:00,axn,40.47
2024-04-18T09:36:00,axn,42.39
2024-04-18T09:37:00,axn,43.23
2024-04-18T09:38:00,axn,42.35
2024-04-18T09:39:00,axn,42.58
2024-04-18T09:40:00,axn,42.73
2024-04-18T09:41:00,axn,43.12
2024-04-18T09:42:00,axn,43.07
2024-04-18T09:43:00,axn,43.85
2024-04-18T09:44:00,axn,44.59
2024-04-18T09:45:00,axn,44.69
2024-04-18T09:46:00,axn,45.51
2024-04-18T09:47:00,axn,60.11
2024-04-18T09:48:00,axn,48.53
2024-04-18T09:49:00,axn,48.96
2024-04-18T09:50:00,axn,44.02
2024-04-18T09:51:00,axn,44.05
2024-04-18T09:52:00,axn,44.19
2024-04-18T09:53:00,axn,46.92
2024-04-18T09:54:00,axn,47.26
2024-04-18T09:55:00,axn,44.20
2024-04-18T09:56:00,axn,44.48
2024-04-18T09:57:00,axn,44.24
2024-04-18T09:58:00,axn,43.77
2024-04-18T09:59:00,axn,43.92
2024-04-18T10:00:00,axn,49.31
2024-04-18T10:01:00,axn,44.85
2024-04-18T10:02:00,axn,44.51
2024-04-18T10:03:00,axn,44.51
2024-04-18T10:04:00,axn,45.16
2024-04-18T10:05:00,axn,44.55
2024-04-18T10:06:00,axn,44.58
2024-04-18T10:07:00,axn,45.10
2024-04-18T10:08:00,axn,49.44
2024-04-18T10:09:00,axn,50.30
2024-04-18T10:10:00,axn,45.37
2024-04-18T10:11:00,axn,45.69
2024-04-18T10:12:00,axn,44.98
2024-04-18T10:13:00,axn,44.74
2024-04-18T10:14:00,axn,44.96
2024-04-18T10:15:00,axn,44.68
2024-04-18T10:16:00,axn,44.83
2024-04-18T10:17:00,axn,44.88
2024-04-18T10:18:00,axn,45.71
2024-04-18T10:19:00,axn,44.95
2024-04-18T10:20:00,axn,45.31
2024-04-18T10:21:00,axn,45.06
2024-04-18T10:22:00,axn,44.72
2024-04-18T10:23:00,axn,45.30
2024-04-18T10:24:00,axn,44.99
2024-04-18T10:25:00,axn,44.68
2024-04-18T10:26:00,axn,61.36
2024-04-18T10:27:00,axn,45.39
2024-04-18T10:28:00,axn,44.58
2024-04-18T10:29:00,axn,44.76
2024-04-18T10:30:00,axn,44.56
2024-04-18T10:31:00,axn,44.58
2024-04-18T10:32:00,axn,44.54
2024-04-18T10:33:00,axn,49.51
2024-04-18T10:34:00,axn,49.60
2024-04-18T10:35:00,axn,44.61
2024-04-18T10:36:00,axn,45.25
2024-04-18T10:37:00,axn,44.69
2024-04-18T10:38:00,axn,44.59
2024-04-18T10:39:00,axn,44.92
2024-04-18T10:40:00,axn,44.68
2024-04-18T10:41:00,axn,44.69
2024-04-18T10:42:00,axn,44.71
2024-04-18T10:43:00,axn,45.04
2024-04-18T10:44:00,axn,55.52
2024-04-18T10:45:00,axn,55.78
2024-04-18T10:46:00,axn,55.71
2024-04-18T10:47:00,axn,55.71
2024-04-18T10:48:00,axn,55.09
2024-04-18T10:49:00,axn,45.99
2024-04-18T10:50:00,axn,45.57
2024-04-18T10:51:00,axn,45.70
2024-04-18T10:52:00,axn,45.48
2024-04-18T10:53:00,axn,46.43
2024-04-18T10:54:00,axn,45.39
2024-04-18T10:55:00,axn,50.30
2024-04-18T10:56:00,axn,45.25
2024-04-18T10:57:00,axn,44.77
2024-04-18T10:58:00,axn,49.12
2024-04-18T10:59:00,axn,49.89
2024-04-18T11:00:00,axn,45.08
2024-04-18T11:01:00,axn,45.62
2024-04-18T11:02:00,axn,44.87
2024-04-18T11:03:00,axn,45.34
2024-04-18T11:04:00,axn,45.19
2024-04-18T11:05:00,axn,45.02
2024-04-18T11:06:00,axn,45.63
2024-04-18T11:07:00,axn,44.96
2024-04-18T11:08:00,axn,45.34
2024-04-18T11:09:00,axn,44.93
2024-04-18T11:10:00,axn,44.64
2024-04-18T11:11:00,axn,44.44
2024-04-18T11:12:00,axn,44.93
2024-04-18T11:13:00,axn,44.77
2024-04-18T11:14:00,axn,44.85
2024-04-18T11:15:00,axn,44.75
2024-04-18T11:16:00,axn,45.02
2024-04-18T11:17:00,axn,58.74
2024-04-18T11:18:00,axn,58.61
2024-04-18T11:19:00,axn,58.53
2024-04-18T11:20:00,axn,57.89
2024-04-18T11:21:00,axn,62.18
2024-04-18T11:22:00,axn,44.48
2024-04-18T11:23:00,axn,44.44
2024-04-18T11:24:00,axn,44.19
2024-04-18T11:25:00,axn,44.26
2024-04-18T11:26:00,axn,44.49
2024-04-18T11:27:00,axn,44.01
2024-04-18T11:28:00,axn,44.54
2024-04-18T11:29:00,axn,44.85
2024-04-18T11:30:00,axn,44.43
2024-04-18T11:31:00,axn,44.63
2024-04-18T11:32:00,axn,52.20
2024-04-18T11:33:00,axn,52.63
2024-04-18T11:34:00,axn,52.23
2024-04-18T11:35:00,axn,52.53
2024-04-18T11:36:00,axn,52.19
2024-04-18T11:37:00,axn,51.57
2024-04-18T11:38:00,axn,52.37
2024-04-18T11:39:00,axn,52.71
2024-04-18T11:40:00,axn,52.05
2024-04-18T11:41:00,axn,56.48
2024-04-18T11:42:00,axn,51.81
2024-04-18T11:43:00,axn,52.28
2024-04-18T11:44:00,axn,52.03
2024-04-18T11:45:00,axn,51.65
2024-04-18T11:46:00,axn,51.81
2024-04-18T11:47:00,axn,51.47
2024-04-18T11:48:00,axn,51.63
2024-04-18T11:49:00,axn,51.67
2024-04-18T11:50:00,axn,51.65
2024-04-18T11:51:00,axn,51.56
2024-04-18T11:52:00,axn,52.16
2024-04-18T11:53:00,axn,51.54
2024-04-18T11:54:00,axn,51.89
2024-04-18T11:55:00,axn,51.75
2024-04-18T11:56:00,axn,51.40
2024-04-18T11:57:00,axn,51.89
2024-04-18T11:58:00,axn,51.85
2024-04-18T11:59:00,axn,51.97
2024-04-18T12:00:00,axn,52.10
2024-04-18T12:01:00,axn,52.25
2024-04-18T12:02:00,axn,56.54
2024-04-18T12:03:00,axn,56.54
2024-04-18T12:04:00,axn,52.39
2024-04-18T12:05:00,axn,52.28
2024-04-18T12:06:00,axn,52.12
2024-04-18T12:07:00,axn,52.12
2024-04-18T12:08:00,axn,52.78
2024-04-18T12:09:00,axn,52.47
2024-04-18T12:10:00,axn,52.65
2024-04-18T12:11:00,axn,52.74
2024-04-18T12:12:00,axn,52.79
2024-04-18T12:13:00,axn,52.80
2024-04-18T12:14:00,axn,58.98
2024-04-18T12:15:00,axn,58.60
2024-04-18T12:16:00,axn,61.86
2024-04-18T12:17:00,axn,55.23
2024-04-18T12:18:00,axn,52.85
2024-04-18T12:19:00,axn,52.25
2024-04-18T12:20:00,axn,52.32
2024-04-18T12:21:00,axn,52.22
2024-04-18T12:22:00,axn,52.55
2024-04-18T12:23:00,axn,52.16
2024-04-18T12:24:00,axn,68.10
2024-04-18T12:25:00,axn,52.54
2024-04-18T12:26:00,axn,52.21
2024-04-18T12:27:00,axn,52.18
2024-04-18T12:28:00,axn,52.59
2024-04-18T12:29:00,axn,52.85
2024-04-18T12:30:00,axn,57.04
2024-04-18T12:31:00,axn,52.07
2024-04-18T12:32:00,axn,51.77
2024-04-18T12:33:00,axn,51.81
2024-04-18T12:34:00,axn,52.16
2024-04-18T12:35:00,axn,51.59
2024-04-18T12:36:00,axn,52.35
2024-04-18T12:37:00,axn,52.02
2024-04-18T12:38:00,axn,51.87
2024-04-18T12:39:00,axn,51.95
2024-04-18T12:40:00,axn,51.75
2024-04-18T12:41:00,axn,50.92
2024-04-18T12:42:00,axn,52.25
2024-04-18T12:43:00,axn,50.92
2024-04-18T12:44:00,axn,51.57
2024-04-18T12:45:00,axn,51.32
2024-04-18T12:46:00,axn,50.58
2024-04-18T12:47:00,axn,51.39
2024-04-18T12:48:00,axn,51.77
2024-04-18T12:49:00,axn,44.12
2024-04-18T12:50:00,axn,43.65
2024-04-18T12:51:00,axn,44.31
2024-04-18T12:52:00,axn,46.15
2024-04-18T12:53:00,axn,43.93
2024-04-18T12:54:00,axn,44.89
2024-04-18T12:55:00,axn,64.95
2024-04-18T12:56:00,axn,48.80
2024-04-18T12:57:00,axn,43.83
2024-04-18T12:58:00,axn,44.29
2024-04-18T12:59:00,axn,43.57
2024-04-18T13:00:00,axn,43.88
2024-04-18T13:01:00,axn,43.69
2024-04-18T13:02:00,axn,44.13
2024-04-18T13:03:00,axn,43.59
2024-04-18T13:04:00,axn,44.07
2024-04-18T13:05:00,axn,44.05
2024-04-18T13:06:00,axn,43.61
2024-04-18T13:07:00,axn,43.97
2024-04-18T13:08:00,axn,44.08
2024-04-18T13:09:00,axn,44.20
2024-04-18T13:10:00,axn,46.02
2024-04-18T13:11:00,axn,43.83
2024-04-18T13:12:00,axn,43.68
2024-04-18T13:13:00,axn,43.64
2024-04-18T13:14:00,axn,43.84
2024-04-18T13:15:00,axn,43.67
2024-04-18T13:16:00,axn,43.66
2024-04-18T13:17:00,axn,43.76
2024-04-18T13:18:00,axn,43.83